{"data":{"norad_id":46172,"intl_designator":"2020-057BH","name":"STARLINK-1635","alt_names":[],"object_type":"PAYLOAD","status":"ACTIVE","operator":null,"country":"US","launch_date":"2020-08-18","launch_site_code":"AFETR","launch_vehicle":null,"mission":null,"orbit_class":"UNKNOWN","rcs_meters":null,"size_class":null,"mass_kg":null,"dimensions":null,"purposes":["comms"],"wikipedia_slug":null,"has_3d_model":false,"image_url":null,"decayed_at":null,"tle_current":{"epoch":"2026-05-24T18:20:09.004704Z","epoch_age_seconds":102321,"freshness":"FRESH","line1":"1 46172U 20057BH  26144.76399311  .00124583  00000+0  74854-3 0  9993","line2":"2 46172  53.0360 241.9681 0006664 297.0307  63.0032 15.76866874320096","mean_motion":15.76866874,"eccentricity":0.0006664,"inclination_deg":53.036,"raan_deg":241.9681,"arg_perigee_deg":297.0307,"mean_anomaly_deg":63.0032,"bstar":0.00074854,"rev_number":32009,"period_min":91.320327907402,"perigee_km":334.84750044384,"apogee_km":343.80053248659,"semimajor_km":6717.4610164652,"source":"CELESTRAK","updated_at":"2026-05-25T13:38:16.469110Z"}}}